Leominster, MA

8:04 AM EST on February 11, 2016 (GMT -0500)
Fitchburg Municipal

Weather History for KFIT - July, 2013

Change the Weather History Date:

Tuesday, July 2, 2013

  Actual Average (KORH) Record (KORH)
Temperature  
Mean Temperature 73 °F 69 °F  
Max Temperature 84 °F 78 °F 97 °F (1901)
Min Temperature 62 °F 60 °F 46 °F (2001)
Degree Days  
Heating Degree Days 0 1  
Month to date heating degree days 2  
Since 1 June heating degree days 85  
Since 1 July heating degree days 2  
Cooling Degree Days 8 5  
Month to date cooling degree days 10  
Year to date cooling degree days 116  
Since 1 June cooling degree days 94  
Growing Degree Days 23 (Base 50)    
Moisture  
Dew Point 69 °F    
Average Humidity 85    
Maximum Humidity 97    
Minimum Humidity 63    
Precipitation  
Precipitation 0.00 in 0.12 in 1.79 in (1986)
Month to date precipitation 0.24  
Year to date precipitation 23.66  
Sea Level Pressure  
Sea Level Pressure 30.15 in    
Wind  
Wind Speed 3 mph (SSE)    
Max Wind Speed 9 mph    
Max Gust Speed 17 mph    
Visibility 9 miles    
Events Rain    
T = Trace of Precipitation, MM = Missing Value Source: NWS Daily Summary

Daily Weather History Graph

Daily Weather History Graph

Search for Another Location

Airport or City:

Trip Planner

Search our weather history database for the weather conditions in past years. The results will help you decide how hot, cold, wet, or windy it might be!

Date:

Astronomy

Jul. 02, 2013 Rise Set
Actual Time 5:13 AM EDT 8:28 PM EDT
Civil Twilight 4:39 AM EDT 9:02 PM EDT
Nautical Twilight 3:54 AM EDT 9:47 PM EDT
Astronomical Twilight 3:00 AM EDT 10:41 PM EDT
Moon 1:18 AM EDT (7/2) 3:36 PM EDT (7/2)
Length of Visible Light 16h 23m
Length of Day
15h 14m
Waning Crescent, 26% of the Moon is Illuminated
Jul 2
Waning Crescent
Jul 8
New
Jul 15
First Quarter
Jul 22
Full
Jul 29
Last Quarter

Hourly Weather History & Observations

Time (EDT) Temp. Heat Index Dew Point Humidity Pressure Visibility Wind Dir Wind Speed Gust Speed Precip Events Conditions
12:52 AM 72.0 °F - 70.0 °F 93% 30.08 in 10.0 mi Calm Calm - N/A   Clear
1:52 AM 72.0 °F - 70.0 °F 93% 30.09 in 8.0 mi Calm Calm - N/A   Mostly Cloudy
2:10 AM 71.6 °F - 69.8 °F 94% 30.09 in 10.0 mi Calm Calm - N/A   Mostly Cloudy
2:43 AM 73.4 °F - 69.8 °F 88% 30.09 in 10.0 mi SSE 3.5 mph - N/A   Mostly Cloudy
2:52 AM 72.0 °F - 70.0 °F 93% 30.09 in 10.0 mi Calm Calm - N/A   Mostly Cloudy
3:52 AM 73.0 °F - 71.1 °F 93% 30.10 in 10.0 mi SSE 3.5 mph - 0.00 in Rain Light Rain
4:52 AM 73.0 °F - 71.1 °F 93% 30.10 in 10.0 mi SSE 4.6 mph - 0.00 in   Mostly Cloudy
5:52 AM 73.0 °F - 71.1 °F 93% 30.12 in 10.0 mi Calm Calm - N/A   Overcast
6:52 AM 73.9 °F - 71.1 °F 91% 30.13 in 10.0 mi SE 4.6 mph - N/A   Overcast
7:03 AM 73.4 °F - 71.6 °F 94% 30.13 in 10.0 mi SSE 4.6 mph - N/A   Mostly Cloudy
7:11 AM 73.4 °F - 71.6 °F 94% 30.14 in 10.0 mi SSE 3.5 mph - N/A   Mostly Cloudy
7:18 AM 73.4 °F - 71.6 °F 94% 30.14 in 10.0 mi SSE 3.5 mph - N/A   Mostly Cloudy
7:31 AM 73.4 °F - 71.6 °F 94% 30.14 in 10.0 mi SE 4.6 mph - N/A   Overcast
7:39 AM 73.4 °F - 71.6 °F 94% 30.14 in 9.0 mi SSE 3.5 mph - N/A   Overcast
7:52 AM 73.9 °F - 71.1 °F 91% 30.14 in 10.0 mi Calm Calm - N/A   Overcast
8:38 AM 75.2 °F - 71.6 °F 89% 30.15 in 10.0 mi SE 4.6 mph - 0.00 in   Overcast
8:52 AM 75.0 °F - 72.0 °F 90% 30.14 in 10.0 mi SE 4.6 mph - 0.00 in   Overcast
9:12 AM 75.2 °F - 71.6 °F 89% 30.14 in 10.0 mi SE 4.6 mph - 0.01 in   Overcast
10:15 AM 77.0 °F - 71.6 °F 83% 30.14 in 10.0 mi Calm Calm - N/A   Overcast
10:52 AM 77.0 °F - 72.0 °F 84% 30.15 in 10.0 mi Calm Calm - N/A   Overcast
11:52 AM 79.0 °F - 72.0 °F 79% 30.15 in 10.0 mi South 5.8 mph - 0.00 in   Overcast
12:04 PM 80.6 °F 84.6 °F 71.6 °F 74% 30.15 in 10.0 mi South 4.6 mph - 0.00 in Rain Light Rain
12:37 PM 80.6 °F 84.6 °F 71.6 °F 74% 30.16 in 10.0 mi SW 8.1 mph - 0.00 in   Mostly Cloudy
12:52 PM 81.0 °F 84.9 °F 71.1 °F 72% 30.15 in 10.0 mi SSW 9.2 mph - 0.00 in   Overcast
1:03 PM 80.6 °F 84.6 °F 71.6 °F 74% 30.15 in 10.0 mi SSW 8.1 mph - N/A   Overcast
1:10 PM 80.6 °F 84.6 °F 71.6 °F 74% 30.15 in 10.0 mi SSW 5.8 mph - N/A   Overcast
1:52 PM 81.0 °F 84.4 °F 70.0 °F 69% 30.15 in 10.0 mi SSW 9.2 mph - N/A   Overcast
2:52 PM 84.0 °F 89.0 °F 71.1 °F 65% 30.14 in 10.0 mi South 8.1 mph 17.3 mph N/A   Mostly Cloudy
3:52 PM 84.0 °F 88.4 °F 70.0 °F 63% 30.13 in 10.0 mi WSW 8.1 mph - N/A   Mostly Cloudy
4:52 PM 84.9 °F 90.1 °F 71.1 °F 63% 30.12 in 10.0 mi South 9.2 mph 17.3 mph N/A   Clear
5:52 PM 82.9 °F 87.5 °F 71.1 °F 67% 30.13 in 10.0 mi South 5.8 mph - N/A   Partly Cloudy
6:52 PM 72.0 °F - 66.0 °F 81% 30.17 in 9.0 mi ENE 6.9 mph 16.1 mph N/A   Scattered Clouds
7:25 PM 69.8 °F - 64.4 °F 83% 30.18 in 8.0 mi ENE 6.9 mph - N/A   Mostly Cloudy
7:52 PM 68.0 °F - 64.0 °F 87% 30.18 in 9.0 mi ENE 5.8 mph - N/A   Overcast
8:52 PM 66.0 °F - 63.0 °F 90% 30.20 in 7.0 mi East 4.6 mph - N/A   Overcast
9:31 PM 64.4 °F - 62.6 °F 94% 30.22 in 5.0 mi ENE 3.5 mph - N/A   Overcast
9:52 PM 64.0 °F - 62.1 °F 93% 30.22 in 5.0 mi ENE 3.5 mph - N/A   Overcast
10:52 PM 63.0 °F - 62.1 °F 97% 30.21 in 2.5 mi NE 3.5 mph - N/A   Overcast
11:45 PM 62.6 °F - 60.8 °F 94% 30.22 in 2.5 mi Calm Calm - N/A   Overcast
11:52 PM 63.0 °F - 61.0 °F 93% 30.22 in 3.0 mi ENE 3.5 mph - N/A   Overcast